User: anonymous
Location: Unspecified
(0.0000°N, 0.0000°E)
Time: 04:23:09
(UTC+02:00)
Language:

Cosmos 2263 Rocket - Orbit

View from above orbital plane
View from above orbital plane
View from above satellite
View from above satellite

Ground track
Ground track

The orbit data is extracted from the following two-line orbital elements,

1 22803U 93059B   14232.24587418 -.00000274  00000-0 -11294-3 0  3441
2 22803 070.9885 263.8355 0016112 164.5827 195.5791 14.16673611 82126
Epoch (UTC): 20 August 2014 05:54:03
Eccentricity: 0.0016112
inclination: 70.9885°
perigee height: 825 km
apogee height: 848 km
right ascension of ascending node: 263.8355°
argument of perigee: 164.5827°
revolutions per day: 14.16673611
mean anomaly at epoch: 195.5791°
orbit number at epoch: 8212

The dashed part of the orbit path shows where the satellite is in the earth's shadow,  

DLR